Alcoa, TN

7:11 AM EDT on September 28, 2016 (GMT -0400)
McGhee Tyson

Weather History for KTYS - January, 2014

Change the Weather History Date:

Monday, January 27, 2014

  Actual Average Record
Temperature  
Mean Temperature 36 °F 39 °F  
Max Temperature 51 °F 48 °F 71 °F (1949)
Min Temperature 21 °F 29 °F 2 °F (1936)
Degree Days  
Heating Degree Days 29 26  
Month to date heating degree days 853 726  
Since 1 July heating degree days 2212 2159  
Cooling Degree Days 0 0  
Month to date cooling degree days 0 0  
Year to date cooling degree days 0 0  
Moisture  
Dew Point 16 °F    
Average Humidity 39    
Maximum Humidity 55    
Minimum Humidity 22    
Precipitation  
Precipitation T in 0.14 in 2.26 in (1957)
Month to date precipitation 2.97 3.75  
Year to date precipitation 2.97 3.75  
Snow  
Snow 0.00 in 0.00 in - ()
Month to date snowfall 0.7 2.3  
Since 1 July snowfall 1.5 3.1  
Snow Depth 0.00 in    
Sea Level Pressure  
Sea Level Pressure 30.01 in    
Wind  
Wind Speed 12 mph (NW)    
Max Wind Speed 21 mph    
Max Gust Speed 24 mph    
Visibility 10 miles    
Events Rain    
T = Trace of Precipitation, MM = Missing Value Source: NWS Daily Summary

Daily Weather History Graph

Daily Weather History Graph

Search for Another Location

Airport or City:

Trip Planner

Search our weather history database for the weather conditions in past years. The results will help you decide how hot, cold, wet, or windy it might be!

Date:

Astronomy

Jan. 27, 2014 Rise Set
Actual Time 7:39 AM EST 5:58 PM EST
Civil Twilight 7:12 AM EST 6:25 PM EST
Nautical Twilight 6:41 AM EST 6:56 PM EST
Astronomical Twilight 6:11 AM EST 7:26 PM EST
Moon 4:18 AM EST (1/27) 2:44 PM EST (1/27)
Length of Visible Light 11h 12m
Length of Day
10h 18m
Waning Crescent, 15% of the Moon is Illuminated
Jan 27
Waning Crescent
Jan 30
New
Feb 6
First Quarter
Feb 14
Full
Feb 22
Last Quarter

Hourly Weather History & Observations

Time (EST) Temp. Windchill Dew Point Humidity Pressure Visibility Wind Dir Wind Speed Gust Speed Precip Events Conditions
12:53 AM 50.0 °F - 28.0 °F 43% 29.80 in 10.0 mi SW 12.7 mph - N/A   Mostly Cloudy
1:53 AM 51.1 °F - 28.0 °F 41% 29.78 in 10.0 mi SW 9.2 mph 19.6 mph N/A   Mostly Cloudy
2:53 AM 51.1 °F - 28.0 °F 41% 29.78 in 10.0 mi West 10.4 mph - N/A   Overcast
3:53 AM 50.0 °F - 28.9 °F 44% 29.83 in 10.0 mi West 13.8 mph - 0.00 in Rain Light Rain
4:53 AM 48.9 °F - 30.0 °F 48% 29.83 in 10.0 mi SW 18.4 mph - 0.00 in   Overcast
5:53 AM 48.0 °F - 32.0 °F 54% 29.84 in 10.0 mi SW 16.1 mph - 0.00 in   Mostly Cloudy
6:53 AM 48.0 °F - 33.1 °F 56% 29.86 in 10.0 mi SW 12.7 mph - 0.00 in Rain Light Rain
7:53 AM 48.0 °F - 32.0 °F 54% 29.88 in 10.0 mi SW 11.5 mph - 0.00 in Rain Light Rain
8:53 AM 48.0 °F - 30.9 °F 52% 29.93 in 10.0 mi West 10.4 mph - 0.00 in   Overcast
9:53 AM 41.0 °F 33.9 °F 27.0 °F 57% 29.98 in 10.0 mi North 12.7 mph - N/A   Overcast
10:53 AM 39.9 °F 32.1 °F 23.0 °F 51% 30.02 in 10.0 mi North 13.8 mph - N/A   Mostly Cloudy
11:53 AM 39.0 °F 32.8 °F 18.0 °F 43% 30.04 in 10.0 mi North 9.2 mph - N/A   Mostly Cloudy
12:53 PM 41.0 °F 36.4 °F 18.0 °F 40% 30.02 in 10.0 mi North 6.9 mph - N/A   Mostly Cloudy
1:53 PM 41.0 °F 34.3 °F 10.0 °F 28% 30.02 in 10.0 mi North 11.5 mph - N/A   Scattered Clouds
2:53 PM 42.1 °F 36.6 °F 9.0 °F 26% 30.03 in 10.0 mi North 9.2 mph - N/A   Scattered Clouds
3:53 PM 39.0 °F 31.8 °F 5.0 °F 24% 30.05 in 10.0 mi North 11.5 mph 21.9 mph N/A   Mostly Cloudy
4:53 PM 34.0 °F 24.2 °F 1.0 °F 25% 30.08 in 10.0 mi North 15.0 mph 21.9 mph N/A   Mostly Cloudy
5:53 PM 30.0 °F 19.1 °F -4.0 °F 23% 30.12 in 10.0 mi North 15.0 mph - N/A   Mostly Cloudy
6:53 PM 28.0 °F 21.7 °F -4.0 °F 25% 30.17 in 10.0 mi North 5.8 mph - N/A   Clear
7:53 PM 28.0 °F 18.6 °F -2.9 °F 26% 30.21 in 10.0 mi North 10.4 mph - N/A   Scattered Clouds
8:53 PM 27.0 °F 18.0 °F -2.9 °F 27% 30.22 in 10.0 mi North 9.2 mph - N/A   Scattered Clouds
9:53 PM 25.0 °F 14.8 °F -0.0 °F 34% 30.25 in 10.0 mi North 10.4 mph - N/A   Mostly Cloudy
10:53 PM 23.0 °F 11.1 °F 1.9 °F 40% 30.26 in 10.0 mi NNE 12.7 mph - N/A   Scattered Clouds
11:53 PM 21.0 °F 8.1 °F -0.0 °F 40% 30.27 in 10.0 mi NNW 13.8 mph 21.9 mph N/A   Mostly Cloudy